Location: Rounton
(54.4000°N, 1.3500°W)
Time: 13:09:40
(UTC+01:00)

Vanguard 1 - Pass Details

Date: 29 February 2024
Orbit: 653 x 3825 km, 34.2° (Epoch: 22 April)

Event Time Altitude Azimuth Distance (km) Brightness Sun altitude
Rises 20:41:39 0° 243° (WSW) 5,453 14.4 -26.5°
Reaches altitude 10° 20:45:03 10° 235° (SW) 4,833 13.9 -26.9°
Maximum altitude 20:58:11 38° 175° (S) 4,163 12.9 -28.6°
Enters shadow 21:03:28 34° 149° (SSE) 4,691 13.0 -29.2°
